Location: *
(28.2408°N, 53.4600°E)
Time: 03:15:15
(UTC+00:00)

Meteor 1-15 Rocket - Pass Details

Date: 22 September 2019
Orbit: 840 x 907 km, 81.2° (Epoch: 18 October)

Event Time Altitude Azimuth Distance (km) Brightness Sun altitude
Rises 15:11:16 0° 176° (S) 3,431 7.3 -11.4°
Reaches altitude 10° 15:13:42 10° 172° (S) 2,507 6.5 -11.9°
Maximum altitude 15:19:18 59° 94° (E) 1,014 4.3 -13.1°
Drops below altitude 10° 15:25:00 10° 16° (NNE) 2,563 6.6 -14.4°
Sets 15:27:31 0° 13° (NNE) 3,514 7.4 -14.9°
